Weather in Uva-Tuklya

Russia / Udmurt Republic     56°58′11″N   52°06′55″E
temp.,
°C
wind,
m/s
gust,
m/s
humid.,
%
clouds,
%
prec.,
mm/h
press.,
hPa
HPBL,
m
17 may, mon
mon1701:00+15ssw22835 0.1 101627
04:00+15ssw228948 0.8 101621
07:00+18w358091 0.0 1018212
10:00+24wsw475088 0.0 10171028
13:00+27wsw4941100 0.0 10171917
16:00+27w5839100 0.0 10171958
19:00+24wnw36525 0.0 1017224
22:00+18nnw226452 0.1 101820
18 may, tue
tue1801:00+15n12755 0.0 101911
04:00+14nne248316 0.0 102071
07:00+17ne247216 0.0 1020269
10:00+21nne3453100 0.0 1020787
13:00+23nne3338100 0.0 10201246
16:00+24nne3337100 0.0 10201348
19:00+21nne2356100 0.0 102066
22:00+15ese36721 0.0 1022104
19 may, wed
wed1901:00+13e310745 0.0 1022183
04:00+12ese39845 0.0 1023185
07:00+15ese48665 0.0 1023358
10:00+20ese46445 0.0 1022883
13:00+24se45325 0.0 10211286
16:00+24se45316 0.0 10211448
19:00+21se36506 0.0 1021223
22:00+15ese37645 0.0 1021117
20 may, thu
thu2001:00+14ese38698 0.0 1020143
04:00+13se237110 0.0 102148
07:00+17sse25628 0.0 1021196
10:00+23s464099 0.0 10201263
13:00+25sse56319 0.0 10191774
16:00+25sse563298 0.0 10181774
19:00+21sse3751100 0.0 1018219
22:00+16sse236724 0.0 101852
21 may, fri
fri2101:00+14sse22690 0.0 101840
04:00+13se2471100 0.0 101868
07:00+17se386282 0.0 1018226
10:00+22sse4643100 0.0 1018751
13:00+24s4732100 0.0 10182053
16:00+25s4633100 0.0 10172116
19:00+22ssw365782 0.0 1017276
22:00+18s257164 0.0 1018114